EW0362 Weather Reports


time (UTC)temp
C
wind
direction
speed
KPH
gust
KPH
rain 1hr
cm
rain 24hr
cm
rain mn
cm
humidity
%
barometer
mb
20260508072704 2 296 0.0 0.0 0.00 0.03 0.00 88 1007.6
20260508072204 2 296 0.0 0.0 0.00 0.03 0.00 88 1007.5
20260508071704 3 296 0.0 0.0 0.00 0.03 0.00 88 1007.5
20260508070704 3 296 0.0 0.0 0.00 0.03 0.00 87 1007.5
20260508070204 3 296 0.0 0.0 0.00 0.03 0.00 87 1007.6
20260508065704 3 296 0.0 0.0 0.00 0.03 0.00 87 1007.6
20260508065203 3 296 0.0 0.0 0.00 0.03 0.00 87 1007.5
20260508064704 3 296 0.0 0.0 0.00 0.03 0.00 87 1007.5
20260508064204 3 296 0.0 0.0 0.00 0.03 0.00 87 1007.6
20260508063704 3 296 0.0 0.0 0.00 0.03 0.00 88 1007.6
20260508062703 3 333 0.0 4.8 0.00 0.03 0.00 86 1007.6
20260508062204 3 321 0.0 3.2 0.00 0.03 0.00 85 1007.6
20260508061704 3 321 0.0 0.0 0.00 0.03 0.00 85 1007.5
20260508060204 4 321 0.0 0.0 0.00 0.03 0.00 83 1007.6
20260508055704 4 321 0.0 0.0 0.00 0.03 0.00 83 1007.7
20260508054704 4 321 0.0 0.0 0.00 0.03 0.00 83 1007.8
20260508054204 5 321 0.0 0.0 0.00 0.03 0.00 82 1007.8
20260508053203 5 321 0.0 0.0 0.00 0.03 0.00 82 1007.8
20260508052203 5 321 0.0 0.0 0.00 0.03 0.00 81 1007.9
20260508051204 5 321 0.0 0.0 0.00 0.03 0.00 81 1008.0
20260508050704 5 321 0.0 0.0 0.00 0.03 0.00 81 1008.0
20260508044204 6 321 0.0 0.0 0.00 0.03 0.00 78 1008.2
20260508042204 6 321 0.0 0.0 0.00 0.03 0.00 80 1008.3
20260508041204 6 321 0.0 0.0 0.00 0.05 0.00 77 1008.2
20260508040704 6 321 0.0 0.0 0.00 0.05 0.00 77 1008.3
20260508040204 7 321 0.0 0.0 0.00 0.05 0.00 76 1008.2
20260508035203 7 321 0.0 0.0 0.00 0.05 0.05 74 1008.2
20260508034704 7 321 0.0 0.0 0.00 0.05 0.05 76 1008.2
20260508034204 7 321 0.0 0.0 0.00 0.05 0.05 76 1008.2
20260508033703 7 321 0.0 0.0 0.00 0.05 0.05 76 1008.2
20260508033204 7 321 0.0 0.0 0.00 0.05 0.05 75 1008.3
20260508032703 7 321 0.0 0.0 0.00 0.05 0.05 74 1008.3
20260508031703 7 321 0.0 0.0 0.00 0.05 0.05 74 1008.0
20260508031203 7 321 0.0 0.0 0.00 0.05 0.05 74 1008.0
20260508030704 7 321 0.0 0.0 0.00 0.05 0.05 73 1008.0
20260508024703 7 321 0.0 0.0 0.00 0.05 0.05 70 1008.0
20260508023203 8 321 0.0 0.0 0.00 0.05 0.05 70 1007.8
20260508022704 8 321 0.0 0.0 0.00 0.05 0.05 69 1007.7
20260508022204 8 321 0.0 0.0 0.00 0.05 0.05 67 1007.8
20260508021704 8 321 0.0 0.0 0.00 0.05 0.05 65 1007.9
20260508021204 8 321 0.0 0.0 0.00 0.05 0.05 65 1007.8
20260508020705 8 321 0.0 0.0 0.00 0.05 0.05 67 1007.7
20260508015204 9 321 0.0 0.0 0.00 0.05 0.05 65 1007.7
20260508013204 10 321 0.0 0.0 0.00 0.05 0.05 61 1007.3
20260508012204 10 321 0.0 0.0 0.00 0.05 0.05 62 1007.1
20260508011205 10 321 0.0 0.0 0.00 0.05 0.05 59 1007.0
20260508005703 11 321 0.0 1.6 0.00 0.05 0.05 54 1006.8
20260508005204 11 321 0.0 0.0 0.00 0.05 0.05 53 1006.7
20260508004204 11 321 0.0 0.0 0.00 0.05 0.05 51 1006.6
20260508002205 12 321 0.0 0.0 0.00 0.05 0.05 45 1006.5
20260508001204 12 321 0.0 0.0 0.00 0.05 0.05 44 1006.4
20260507235705 13 250 0.0 4.8 0.00 0.05 0.05 43 1006.2
20260507234705 13 258 0.0 1.6 0.00 0.05 0.05 43 1006.0
20260507233704 13 258 3.2 4.8 0.00 0.05 0.05 39 1006.1
20260507232205 14 336 1.6 4.8 0.00 0.05 0.05 41 1005.9
20260507231205 15 281 1.6 9.7 0.00 0.08 0.05 38 1005.7
20260507224705 15 44 0.0 3.2 0.00 0.18 0.05 37 1005.7
20260507224205 15 323 4.8 19.3 0.00 0.18 0.05 37 1005.7
20260507223705 15 319 4.8 14.5 0.00 0.18 0.05 35 1005.6
20260507223204 15 271 1.6 4.8 0.00 0.18 0.05 38 1005.5
20260507221704 16 221 3.2 11.3 0.00 0.20 0.05 36 1005.4
20260507220204 16 223 4.8 19.3 0.00 0.20 0.05 35 1005.3
20260507214704 16 302 3.2 9.7 0.00 0.23 0.05 36 1005.1
20260507214206 16 251 3.2 9.7 0.00 0.23 0.05 35 1005.1
20260507213704 16 273 1.6 11.3 0.00 0.23 0.05 37 1005.1
20260507212704 16 237 6.4 12.9 0.00 0.25 0.05 36 1005.1
20260507210206 17 157 1.6 12.9 0.00 0.25 0.05 36 1005.1
20260507203204 17 287 3.2 12.9 0.00 0.33 0.05 37 1005.0
20260507202705 17 274 3.2 11.3 0.00 0.33 0.05 39 1004.9
20260507202204 17 304 3.2 11.3 0.00 0.33 0.05 38 1005.0
20260507201705 17 10 3.2 12.9 0.00 0.33 0.05 38 1004.9
20260507201204 17 275 4.8 16.1 0.00 0.36 0.05 36 1005.0
20260507200705 17 255 3.2 14.5 0.00 0.36 0.05 39 1005.0
20260507200204 17 266 3.2 11.3 0.00 0.36 0.05 38 1005.0
20260507195204 17 220 4.8 9.7 0.00 0.36 0.05 38 1005.1
20260507193705 16 268 4.8 9.7 0.00 0.36 0.05 36 1005.3
20260507193205 16 251 4.8 14.5 0.00 0.36 0.05 37 1005.2
20260507192705 16 314 4.8 12.9 0.00 0.36 0.05 35 1005.3
20260507192204 16 277 1.6 11.3 0.00 0.36 0.05 37 1005.4
20260507191204 16 308 6.4 16.1 0.00 0.38 0.05 37 1005.5
20260507190204 16 245 3.2 11.3 0.00 0.41 0.05 35 1005.5
20260507185704 17 244 8.0 12.9 0.00 0.41 0.05 35 1005.6
20260507185205 17 268 3.2 12.9 0.00 0.41 0.05 38 1005.6
20260507184204 17 263 3.2 14.5 0.00 0.43 0.05 36 1005.8
20260507182705 17 289 6.4 11.3 0.00 0.46 0.05 37 1005.9
20260507182204 17 300 3.2 12.9 0.00 0.46 0.05 35 1005.9
20260507181705 17 286 3.2 11.3 0.00 0.46 0.05 34 1006.0
20260507181204 17 270 3.2 11.3 0.00 0.46 0.05 35 1006.0
20260507180704 17 283 3.2 14.5 0.00 0.46 0.05 38 1006.0
20260507180204 17 282 4.8 16.1 0.00 0.46 0.05 38 1006.0
20260507173205 16 262 4.8 16.1 0.00 0.46 0.05 36 1006.0
20260507172204 16 260 3.2 14.5 0.00 0.46 0.05 39 1005.9
20260507170704 16 251 4.8 19.3 0.00 0.46 0.05 36 1006.0
20260507164204 16 314 4.8 14.5 0.00 0.46 0.05 41 1006.5
20260507162704 16 354 3.2 12.9 0.00 0.46 0.05 44 1006.5
20260507162205 16 245 1.6 11.3 0.00 0.46 0.05 49 1006.6
20260507161204 15 196 3.2 11.3 0.00 0.46 0.05 46 1006.6
20260507160704 15 324 4.8 11.3 0.00 0.46 0.05 49 1006.7
20260507155704 15 253 1.6 12.9 0.00 0.46 0.05 52 1006.6
20260507154704 15 256 6.4 11.3 0.00 0.46 0.05 51 1006.7
20260507154204 15 215 3.2 9.7 0.00 0.46 0.05 51 1006.7
20260507153704 15 210 4.8 8.0 0.00 0.46 0.05 55 1006.8
20260507153204 15 290 1.6 9.7 0.00 0.46 0.05 56 1006.8
20260507152704 15 253 3.2 12.9 0.00 0.46 0.05 57 1006.9
20260507151704 15 260 1.6 14.5 0.00 0.46 0.05 59 1006.9
20260507151204 15 305 1.6 9.7 0.00 0.46 0.05 63 1007.0
20260507145204 14 305 3.2 9.7 0.00 0.46 0.05 62 1007.3
20260507144704 14 303 4.8 12.9 0.00 0.46 0.05 62 1007.2
20260507141704 14 337 0.0 9.7 0.00 0.46 0.05 63 1007.1
20260507135204 13 228 1.6 4.8 0.00 0.46 0.05 66 1007.1
20260507134205 13 297 3.2 4.8 0.00 0.46 0.05 68 1007.0
20260507133204 12 314 1.6 8.0 0.00 0.46 0.05 67 1007.1
20260507132704 12 258 1.6 4.8 0.00 0.46 0.05 69 1007.3
20260507132204 12 281 1.6 9.7 0.00 0.46 0.05 70 1007.3
20260507131206 12 243 0.0 4.8 0.00 0.46 0.05 71 1007.5
20260507130704 12 246 1.6 4.8 0.00 0.46 0.05 72 1007.5
20260507125704 11 358 1.6 4.8 0.00 0.46 0.05 75 1007.6
20260507125204 11 260 1.6 8.0 0.00 0.46 0.05 75 1007.6
20260507124705 11 217 0.0 4.8 0.00 0.46 0.05 76 1007.6
20260507124204 11 249 3.2 8.0 0.00 0.46 0.05 76 1007.6
20260507122705 11 347 3.2 8.0 0.00 0.46 0.05 81 1007.7
20260507122204 10 58 1.6 4.8 0.00 0.46 0.05 81 1007.8
20260507121704 10 347 1.6 4.8 0.00 0.46 0.05 82 1007.8
20260507120704 10 341 3.2 9.7 0.00 0.46 0.05 85 1007.8
20260507115705 9 251 0.0 3.2 0.00 0.46 0.05 87 1007.8
20260507115204 9 291 0.0 1.6 0.00 0.46 0.05 87 1007.8
20260507114704 9 292 0.0 3.2 0.00 0.46 0.05 87 1007.7
20260507112704 9 5 0.0 3.2 0.00 0.46 0.05 87 1007.6
20260507111205 9 15 0.0 0.0 0.00 0.46 0.05 89 1007.7
20260507110704 9 344 1.6 3.2 0.00 0.46 0.05 89 1007.7
20260507105204 9 6 0.0 3.2 0.00 0.46 0.05 91 1007.3
20260507104704 8 9 0.0 1.6 0.00 0.46 0.05 91 1007.4
20260507104204 8 9 0.0 0.0 0.00 0.46 0.05 91 1007.2
20260507103704 8 9 0.0 0.0 0.00 0.46 0.05 91 1007.1
20260507103204 8 9 0.0 0.0 0.00 0.46 0.05 91 1007.0
20260507102703 8 9 0.0 0.0 0.00 0.46 0.05 91 1007.1
20260507102204 8 9 0.0 0.0 0.00 0.46 0.05 91 1006.9
20260507101704 8 9 0.0 1.6 0.03 0.46 0.05 91 1007.1
20260507101204 8 9 0.0 0.0 0.03 0.46 0.05 91 1007.0
20260507100704 8 9 0.0 1.6 0.03 0.46 0.05 91 1007.2
20260507095703 9 9 0.0 4.8 0.03 0.46 0.05 91 1006.8
20260507095204 9 28 0.0 3.2 0.03 0.46 0.05 92 1006.9
20260507094204 9 259 0.0 0.0 0.03 0.46 0.05 92 1007.3
20260507093204 9 259 0.0 0.0 0.03 0.46 0.05 92 1007.2
20260507092204 9 259 0.0 0.0 0.03 0.46 0.05 92 1007.0
20260507091704 9 259 0.0 3.2 0.00 0.43 0.03 92 1007.1
20260507090205 9 256 0.0 1.6 0.00 0.43 0.03 92 1007.4
20260507085703 10 256 0.0 1.6 0.00 0.43 0.03 92 1007.1
20260507085204 10 256 0.0 1.6 0.00 0.43 0.03 92 1006.9
20260507084704 10 255 0.0 1.6 0.00 0.43 0.03 92 1006.9
20260507083704 10 256 0.0 0.0 0.00 0.43 0.03 92 1006.8
20260507082204 10 257 0.0 0.0 0.00 0.43 0.03 91 1006.7
20260507081204 10 258 0.0 3.2 0.00 0.43 0.03 90 1006.7
20260507080703 10 250 0.0 0.0 0.00 0.43 0.03 90 1006.7
20260507080204 10 257 1.6 3.2 0.00 0.43 0.03 89 1006.5
20260507075705 10 129 1.6 3.2 0.00 0.43 0.03 88 1006.7
20260507075204 10 193 0.0 1.6 0.00 0.43 0.03 89 1006.6
20260507074205 10 193 0.0 1.6 0.00 0.43 0.03 88 1007.0